Stations météo

réclame
Mon MeteoGroup
Muret-Lherm, France (7628): Température de l'air & dewpoint: 14.10.2018 04:00:00 - 20.10.2018 04:00:00 (CEST)Muret-Lherm, France (7628): Vitesse du vent & gusts: 14.10.2018 04:00:00 - 20.10.2018 04:00:00 (CEST)Muret-Lherm, France (7628): Direction du vent: 14.10.2018 04:00:00 - 20.10.2018 04:00:00 (CEST)Muret-Lherm, France (7628): reduced air pressure: 14.10.2018 04:00:00 - 20.10.2018 04:00:00 (CEST)Muret-Lherm, France (7628): visibility: 14.10.2018 04:00:00 - 20.10.2018 04:00:00 (CEST)Muret-Lherm, France (7628): Quantités de précipitations: 14.10.2018 04:00:00 - 20.10.2018 04:00:00 (CEST)
Date & Time tt [°C] td [°C] ff [km/h] ff [knt] fx [km/h] fx [knt] dd ppp [hPa] vv [km] rr [mm]
20.10.2018 04:00:00 - - - - - - - - - -
20.10.2018 03:00:00 15,3 14,8 4 2 5 3 SSE 1021,3 3,9 0,0
20.10.2018 02:00:00 15,0 14,4 5 3 5 3 NW 1021,2 2,7 -
20.10.2018 01:00:00 15,3 14,8 4 2 5 3 SSW 1021,2 4,0 0,0
20.10.2018 00:00:00 14,4 13,8 2 1 5 3 W 1021,2 4,1 0,0
19.10.2018 23:00:00 14,5 13,5 5 3 5 3 NW 1020,8 0,6 0,0
19.10.2018 22:00:00 16,1 15,1 4 2 8 4 N 1020,2 4,8 0,0
19.10.2018 21:00:00 16,8 15,1 5 3 9 5 N 1019,8 10 0,0
19.10.2018 20:00:00 18,2 15,4 4 2 8 4 NNW 1019,1 14 -
19.10.2018 19:00:00 19,3 15,8 5 3 8 4 NNE 1018,1 15 0,0
19.10.2018 18:00:00 21,0 15,5 5 3 13 7 NE 1017,7 19 0,0
19.10.2018 17:00:00 21,7 15,3 9 5 15 8 NNE 1017,7 19 -
19.10.2018 16:00:00 21,8 15,6 5 3 13 7 NE 1017,4 18 0,0
19.10.2018 15:00:00 21,4 15,5 8 4 13 7 ENE 1017,7 1,9 0,0
19.10.2018 14:00:00 20,0 15,8 5 3 11 6 NNE 1018,0 17 -
19.10.2018 13:00:00 17,5 15,3 2 1 5 3 S 1019,0 18 0,0
19.10.2018 12:00:00 15,8 14,3 2 1 9 5 SSW 1019,1 16 0,0
19.10.2018 11:00:00 14,9 14,3 4 2 5 3 SSW 1018,7 13 -
19.10.2018 10:00:00 14,0 13,7 4 2 11 6 S 1018,7 9 0,0
19.10.2018 09:00:00 12,5 12,3 5 3 11 6 S 1018,2 4,2 0,0
19.10.2018 08:00:00 12,0 11,7 5 3 9 5 SW 1017,6 0,2 -
19.10.2018 07:00:00 11,6 11,1 2 1 5 3 WNW 1017,4 0,1 0,2
19.10.2018 06:00:00 12,9 12,3 0 0 4 2 N 1017,1 0,3 0,0
19.10.2018 05:00:00 14,3 13,8 4 2 8 4 SSW 1016,9 4,7 0,0
19.10.2018 04:00:00 14,1 13,6 5 3 9 5 S 1016,8 3,4 0,0
19.10.2018 03:00:00 14,4 13,8 5 3 9 5 S 1016,9 3,7 0,0
19.10.2018 02:00:00 14,7 14,4 5 3 9 5 SSW 1016,8 3,8 -
19.10.2018 01:00:00 13,9 13,3 5 3 5 3 SSW 1016,8 2,4 0,0
19.10.2018 00:00:00 15,0 14,2 4 2 11 6 SSE 1016,7 5 0,0
18.10.2018 23:00:00 15,4 14,8 8 4 9 5 S 1016,7 4,0 0,0
18.10.2018 22:00:00 15,2 14,7 2 1 5 3 W 1016,3 4,3 0,0
18.10.2018 21:00:00 14,8 14,3 4 2 5 3 SW 1016,3 5 0,0
18.10.2018 20:00:00 14,7 13,4 4 2 5 3 W 1015,9 3,5 -
18.10.2018 19:00:00 17,0 15,0 0 0 8 4 N 1015,2 14 0,0
18.10.2018 18:00:00 17,8 14,9 5 3 11 6 ENE 1014,8 19 0,0
18.10.2018 17:00:00 18,6 15,3 8 4 13 7 ENE 1014,7 18 0,0
18.10.2018 16:00:00 17,7 14,6 4 2 8 4 E 1014,9 19 0,0
18.10.2018 15:00:00 16,6 14,6 5 3 13 7 ESE 1015,3 10 0,0
18.10.2018 14:00:00 16,8 13,9 5 3 13 7 ESE 1015,7 20 -
18.10.2018 13:00:00 16,9 14,4 9 5 18 10 ENE 1016,0 20 0,0
18.10.2018 12:00:00 16,2 14,6 8 4 13 7 ENE 1016,0 9 0,0
18.10.2018 11:00:00 14,6 13,6 5 3 11 6 NE 1016,3 11 0,4
18.10.2018 10:00:00 14,1 13,3 9 5 16 9 ENE 1016,2 5 3,0
18.10.2018 09:00:00 14,7 14,2 4 2 8 4 NW 1015,5 4,3 0,4
18.10.2018 08:00:00 14,5 13,9 0 0 5 3 N 1015,6 4,1 -
18.10.2018 07:00:00 14,6 14,0 0 0 5 3 N 1015,1 5 0,0
18.10.2018 06:00:00 14,7 14,2 0 0 11 6 N 1014,8 7 0,0
18.10.2018 05:00:00 14,0 13,7 5 3 8 4 NE 1014,9 3,0 -
18.10.2018 04:00:00 12,5 12,0 4 2 5 3 ENE 1015,1 0,5 0,0
18.10.2018 03:00:00 12,9 12,1 0 0 4 2 N 1015,4 0,7 0,0
18.10.2018 02:00:00 13,7 12,8 4 2 5 3 NNW 1015,4 0,2 -
18.10.2018 01:00:00 15,6 14,5 4 2 8 4 SE 1015,5 8 0,0
18.10.2018 00:00:00 16,5 14,9 2 1 9 5 NNE 1015,7 14 0,0
17.10.2018 23:00:00 16,0 14,2 4 2 5 3 NNE 1015,6 11 0,0
17.10.2018 22:00:00 16,0 14,5 4 2 5 3 N 1015,5 12 0,0
17.10.2018 21:00:00 17,1 14,7 4 2 5 3 NE 1015,1 17 0,0
17.10.2018 20:00:00 17,8 14,7 4 2 5 3 ENE 1014,9 20 -
17.10.2018 19:00:00 18,4 14,1 4 2 15 8 N 1014,5 18 0,0
17.10.2018 18:00:00 20,6 14,3 4 2 18 10 E 1014,3 20 0,0
17.10.2018 17:00:00 19,6 13,8 2 1 16 9 NE 1014,7 19 -
17.10.2018 16:00:00 20,1 13,8 4 2 11 6 NE 1015,0 17 0,0
17.10.2018 15:00:00 19,3 13,2 2 1 8 4 SSE 1015,7 18 0,0
17.10.2018 14:00:00 19,1 13,5 4 2 8 4 SW 1016,5 19 -
17.10.2018 13:00:00 18,5 12,7 2 1 8 4 W 1017,4 20 0,0
17.10.2018 12:00:00 17,0 14,6 0 0 8 4 N 1018,0 20 0,0
17.10.2018 11:00:00 15,5 14,4 5 3 11 6 SSW 1018,5 12 -
17.10.2018 10:00:00 14,9 14,1 5 3 8 4 S 1018,6 6 0,0
17.10.2018 09:00:00 14,5 13,9 4 2 5 3 S 1018,3 9 0,0
17.10.2018 08:00:00 14,1 13,5 4 2 8 4 S 1018,5 7 -
17.10.2018 07:00:00 14,2 13,7 4 2 5 3 S 1018,6 13 0,0
17.10.2018 06:00:00 14,0 13,5 2 1 5 3 SE 1018,4 13 0,0
17.10.2018 05:00:00 14,3 13,3 4 2 5 3 SSW 1018,1 14 0,0
17.10.2018 04:00:00 15,0 14,2 2 1 9 5 E 1018,5 6 0,0
17.10.2018 03:00:00 15,1 14,1 4 2 11 6 S 1018,9 18 0,0
17.10.2018 02:00:00 15,4 14,4 8 4 9 5 S 1019,1 7 -
17.10.2018 01:00:00 15,2 14,1 5 3 9 5 S 1019,3 7 0,0
17.10.2018 00:00:00 16,1 14,6 5 3 9 5 E 1019,5 11 0,0
16.10.2018 23:00:00 16,4 14,6 4 2 13 7 E 1019,8 13 -
16.10.2018 22:00:00 16,5 14,5 5 3 13 7 ESE 1019,5 15 0,0
16.10.2018 21:00:00 16,5 14,5 5 3 15 8 SE 1019,0 17 0,0
16.10.2018 20:00:00 16,8 14,4 5 3 16 9 ESE 1018,8 9 -
16.10.2018 19:00:00 17,5 14,8 11 6 22 12 ESE 1018,0 20 0,0
16.10.2018 18:00:00 18,4 15,1 11 6 18 10 ESE 1017,4 20 0,0
16.10.2018 17:00:00 17,6 15,9 13 7 34 18 ESE 1017,1 5 4,0
16.10.2018 16:00:00 21,3 14,0 8 4 24 13 SE 1016,7 20 0,0
16.10.2018 15:00:00 21,7 14,1 4 2 15 8 SE 1016,6 17 0,0
16.10.2018 14:00:00 20,2 14,3 8 4 15 8 ESE 1017,0 11 -
16.10.2018 13:00:00 19,0 14,0 5 3 15 8 E 1017,2 19 0,0
16.10.2018 12:00:00 16,2 14,2 4 2 8 4 NNE 1017,3 16 0,0
16.10.2018 11:00:00 14,6 13,6 4 2 8 4 SSE 1017,2 7 0,0
16.10.2018 10:00:00 14,3 13,7 4 2 11 6 WSW 1016,6 7 0,0
16.10.2018 09:00:00 13,6 13,1 4 2 8 4 SSW 1016,2 4,5 0,0
16.10.2018 08:00:00 13,3 12,8 5 3 9 5 SSW 1015,5 5 -
16.10.2018 07:00:00 13,2 12,7 5 3 9 5 S 1014,8 6 0,0
16.10.2018 06:00:00 13,2 12,7 5 3 5 3 SW 1014,1 6 0,0
16.10.2018 05:00:00 13,3 13,0 5 3 8 4 WSW 1013,5 7 0,0
16.10.2018 04:00:00 13,2 12,9 4 2 5 3 SW 1013,5 8 0,0
16.10.2018 03:00:00 12,9 12,6 2 1 5 3 SW 1013,5 10 0,0
16.10.2018 02:00:00 12,0 11,7 5 3 5 3 W 1013,3 8 -
16.10.2018 01:00:00 11,4 11,1 4 2 8 4 N 1013,4 0,2 0,0
16.10.2018 00:00:00 10,9 10,0 5 3 5 3 NNW 1013,0 0,3 0,0
15.10.2018 23:00:00 12,7 11,8 0 0 5 3 N 1012,5 6 -
15.10.2018 22:00:00 14,1 13,1 4 2 5 3 E 1012,1 20 0,0
15.10.2018 21:00:00 14,2 12,9 5 3 5 3 NE 1011,5 20 0,0
15.10.2018 20:00:00 14,8 12,8 4 2 11 6 N 1010,9 19 -
15.10.2018 19:00:00 15,9 12,6 8 4 11 6 NE 1010,0 20 0,0
15.10.2018 18:00:00 16,4 12,7 5 3 9 5 NNE 1009,6 20 0,0
15.10.2018 17:00:00 16,4 12,7 5 3 13 7 N 1009,3 20 -
15.10.2018 16:00:00 17,0 13,3 5 3 13 7 NW 1008,8 20 0,0
15.10.2018 15:00:00 16,2 13,1 4 2 11 6 WNW 1008,6 20 0,0
15.10.2018 14:00:00 16,0 12,5 5 3 11 6 W 1009,0 20 -
15.10.2018 13:00:00 14,9 12,4 9 5 16 9 W 1009,3 20 0,0
15.10.2018 12:00:00 14,4 13,1 9 5 18 10 W 1008,7 20 0,0
15.10.2018 11:00:00 13,9 12,6 11 6 18 10 W 1008,7 17 -
15.10.2018 10:00:00 13,2 12,6 15 8 21 11 WSW 1008,3 19 0,2
15.10.2018 09:00:00 12,9 12,1 11 6 21 11 WSW 1007,8 20 0,6
15.10.2018 08:00:00 12,9 12,3 11 6 22 12 W 1007,0 3,0 -
15.10.2018 07:00:00 12,8 12,0 16 9 28 15 W 1006,3 14 3,0
15.10.2018 06:00:00 12,8 12,2 16 9 24 13 W 1007,1 12 4,0
15.10.2018 05:00:00 12,8 12,0 15 8 28 15 W 1007,1 17 3,0
15.10.2018 04:00:00 13,0 12,2 13 7 22 12 W 1007,7 14 4,0
15.10.2018 03:00:00 13,2 12,6 9 5 15 8 W 1008,4 8 2,0
15.10.2018 02:00:00 13,3 12,7 9 5 13 7 WNW 1008,6 10 -
15.10.2018 01:00:00 13,5 12,7 9 5 18 10 W 1009,5 11 3,0
15.10.2018 00:00:00 13,7 12,9 8 4 11 6 WSW 1010,4 11 2,0
14.10.2018 23:00:00 13,9 13,1 5 3 13 7 W 1010,4 14 -
14.10.2018 22:00:00 14,1 13,1 9 5 16 9 WNW 1010,2 6 4,0
14.10.2018 21:00:00 14,5 13,5 13 7 28 15 NW 1009,6 5 5,0
14.10.2018 20:00:00 16,3 13,2 16 9 37 20 WNW 1009,1 18 -
14.10.2018 19:00:00 17,5 12,6 18 10 48 26 WNW 1007,5 20 0,0
14.10.2018 18:00:00 18,4 12,8 31 17 70 38 WNW 1006,2 20 0,0
14.10.2018 17:00:00 23,7 15,7 26 14 61 33 SE 1004,1 20 -
14.10.2018 16:00:00 26,4 15,7 31 17 59 32 ESE 1002,3 20 0,0
14.10.2018 15:00:00 26,6 16,2 31 17 55 30 ESE 1002,5 20 0,0
14.10.2018 14:00:00 25,5 16,4 35 19 55 30 ESE 1003,3 20 -
14.10.2018 13:00:00 24,7 15,9 31 17 54 29 ESE 1004,5 20 0,0
14.10.2018 12:00:00 23,4 16,0 26 14 54 29 ESE 1005,2 20 0,0
14.10.2018 11:00:00 22,2 15,8 29 16 61 33 ESE 1005,1 20 -
14.10.2018 10:00:00 20,6 16,0 34 18 52 28 ESE 1005,6 20 0,0
14.10.2018 09:00:00 19,2 16,1 22 12 44 24 SE 1006,1 20 0,0
14.10.2018 08:00:00 18,6 16,0 24 13 42 23 ESE 1006,0 20 -
14.10.2018 07:00:00 18,7 16,1 21 11 46 25 ESE 1006,4 20 0,0
14.10.2018 06:00:00 18,9 16,5 22 12 44 24 ESE 1006,8 20 0,0
14.10.2018 05:00:00 19,1 16,7 28 15 48 26 ESE 1007,1 20 0,0
14.10.2018 04:00:00 19,2 16,8 29 16 50 27 ESE 1007,6 20 0,0

tt = Température de l'air
td = dewpoint
ff = Vitesse du vent
fx = gusts
dd = Direction du vent
ppp = reduced air pressure
vv = visibility
rr = Quantités de précipitations

stations d'obs. à proximité